Triathlon du Salagou - 10/06/2017

Kids 2 10-11 ans

93 participants classés


Retour au Sommaire - Signaler une erreur - Faire défiler





1 2 /fin /tout

page suivante ->

Pl Do. Nom - Surname Prénom - Name S-Cat /cat Club - Team TEMPS - Time /sx Trans1 Tps1 Vit1 P1 Trans2 Tps2 Vit2 P2 Tps3 Vit3 P3
1 122 ESTEVE DORIAN MPU 1 La Grande Motte Triathlon 0:09:46.99 1 01:06.0 0:02:35.1 2,3 1 00:49.1 0:02:02.6 29,4 1 0:03:13.3 18,6 8
2 150 LOPEZ LOUISON MPU 2 SALONTRIATHLON 0:10:12.61 2 01:06.9 0:02:54.5 2,1 9 00:52.5 0:02:11.2 27,4 3 0:03:05.4 19,4 3
3 148 ARBIN MATHYS MPU 3 RODEZ TRIATHLON 12 0:10:16.93 3 01:00.1 0:02:57.9 2 17 00:56.7 0:02:09.5 27,8 2 0:03:11.0 18,8 5
4 106 HUGER RAPHAËL MPU 4 AQUASPORTS St Cyprien 0:10:19.41 4 01:02.2 0:02:37.6 2,3 2 00:45.2 0:02:29.9 24 18 0:03:21.8 17,8 15
5 142 TUPINIER JULES MPU 5 MAT MONTPELLIER 0:10:29.38 5 01:14.1 0:02:45.7 2,2 4 00:56.0 0:02:21.3 25,5 11 0:03:11.1 18,8 6
6 109 PRUVOST ADRIEN MPU 6 ATHLETIQUE CLUB CLERMONTAIS 0:10:31.94 6 01:29.4 0:02:56.7 2 14 00:48.4 0:02:18.4 26 7 0:02:58.8 20,1 1
7 111 SARNETTE EMMA FPU 1 CAVAILLON TRIATHLON CLUB 0:10:34.37 1 01:05.7 0:02:53.5 2,1 8 00:48.9 0:02:19.5 25,8 9 0:03:25.5 17,5 20
8 112 VELLA ROMAN MPU 7 CENTAURES DE PERTUIS 0:10:41.23 7 01:17.7 0:02:58.7 2 18 00:48.0 0:02:27.3 24,4 16 0:03:08.4 19,1 4
9 191 OLIPHAR JOACKIM MPU 8   0:10:43.04 8 01:11.9 0:02:57.8 2 16 00:45.8 0:02:14.0 26,9 4 0:03:32.0 17 25
10 200 GAGNAIRE NOAH MPU 9 Coureurs de fond Villeneuvois 0:10:43.12 9 01:28.9 0:02:52.0 2,1 6 00:39.7 0:02:20.1 25,7 10 0:03:20.7 17,9 13
11 178 KINGUE PRUNELLE FPU 2   0:10:45.88 2 01:24.7 0:02:38.4 2,3 3 00:55.1 0:02:24.3 24,9 14 0:03:22.4 17,8 16
12 176 JONES ARTHUR MPU 10   0:10:53.79 10 01:21.7 0:02:55.1 2,1 11 00:42.7 0:02:22.9 25,2 13 0:03:29.7 17,2 22
13 166 CATHALA CYLIAN MPU 11   0:10:57.39 11 01:16.1 0:02:56.9 2 15 00:46.9 0:02:25.0 24,8 15 0:03:31.2 17 23
14 192 PAPA BENJAMIN MPU 12   0:10:58.12 12 01:13.2 0:02:56.4 2 13 00:50.2 0:02:17.0 26,3 6 0:03:38.5 16,5 35
15 128 MOURGUES PIERRE MPU 13 LOUPIAN TRI NATURE 0:10:59.53 13 01:33.0 0:03:09.1 1,9 26 00:45.7 0:02:29.8 24 17 0:03:00.2 20 2
16 127 DOMINGUEZ LEA FPU 3 LOUPIAN TRI NATURE 0:11:04.59 3 01:10.1 0:03:04.4 2 22 00:55.0 0:02:19.4 25,8 8 0:03:34.5 16,8 29
17 125 BRUTSAERT MAXIME MPU 14 LOUPIAN TRI NATURE 0:11:07.69 14 01:23.4 0:03:03.1 2 20 00:50.9 0:02:15.7 26,5 5 0:03:33.3 16,9 26
18 110 GUZZONATO BERANGERE FPU 4 BRIVE LIMOUSIN TRIATHLON 0:11:17.21 4 01:07.4 0:02:52.8 2,1 7 00:50.0 0:02:22.7 25,2 12 0:04:03.1 14,8 62
19 151 MACQUART JULES MPU 15 TC CARCASSONNE 0:11:20.90 15 01:14.4 0:03:20.7 1,8 51 00:48.8 0:02:40.1 22,5 23 0:03:15.4 18,4 10
20 188 MARTZLUFF THEO MPU 16   0:11:39.12 16 01:38.6 0:02:55.8 2 12 00:42.9 0:02:40.1 22,5 24 0:03:40.3 16,3 39
21 195 ROQUE PIERRIC MPU 17   0:11:43.47 17 01:27.6 0:03:23.7 1,8 58 00:40.4 0:02:51.2 21 33 0:03:18.2 18,2 11
22 124 BROS ALEXIS MPU 18 LOUPIAN TRI NATURE 0:11:48.24 18 01:26.3 0:03:12.1 1,9 32 00:50.2 0:02:41.7 22,3 25 0:03:37.3 16,6 31
23 133 ARCELLA PIERRE MPU 19 LOUPIAN TRI NATURE 0:11:49.30 19 01:17.5 0:03:16.1 1,8 39 00:53.1 0:02:30.5 23,9 19 0:03:51.2 15,6 47
24 182 LE BEUZE YOUENN MPU 20   0:11:50.35 20 01:33.0 0:03:19.2 1,8 47 00:41.7 0:03:02.7 19,7 39 0:03:12.0 18,7 7
25 136 CALDIES ADRIEN MPU 21 MAT MONTPELLIER 0:11:58.71 21 01:20.7 0:03:19.1 1,8 46 00:56.3 0:02:43.5 22 28 0:03:38.5 16,5 34
26 121 GEORGEL ELIOTT MPU 22 HBC Clermont salagou 0:12:08.99 22 01:27.9 0:03:11.5 1,9 31 00:48.7 0:02:46.4 21,6 29 0:03:52.8 15,5 50
27 164 CABEL ARMAND MPU 23   0:12:13.55 23 01:41.2 0:03:02.4 2 19 00:43.6 0:03:23.1 17,7 66 0:03:21.3 17,9 14
28 129 FONTENAY NOAH MPU 24 LTN ( LOUPIAN TRI NATURE) 0:12:13.70 24 01:28.5 0:03:15.6 1,8 37 01:11.4 0:02:40.0 22,5 22 0:03:37.9 16,5 33
29 161 BONNET ISAAC MPU 25   0:12:21.09 25 01:48.7 0:02:47.7 2,1 5 00:45.7 0:02:43.2 22,1 27 0:04:14.1 14,2 71
30 107 MELLET SOREN MPU 26 ASPH TRIATHLON 0:12:23.12 26 01:26.0 0:03:05.5 1,9 23 00:56.6 0:02:49.7 21,2 31 0:04:05.4 14,7 63
31 105 ROMERA LUCIE FPU 5 AQUASPORT SAINT CYPRIEN 0:12:27.17 5 01:26.6 0:03:18.7 1,8 44 00:56.5 0:02:57.8 20,2 37 0:03:47.4 15,8 43
32 130 ROUX ANTOINE MPU 27 MAGUELONE JOGGING 0:12:27.98 27 01:56.2 0:03:09.9 1,9 28 00:52.8 0:03:02.2 19,8 38 0:03:25.4 17,5 19
33 180 LANDJERIT PIERRE MPU 28   0:12:36.51 28                      
34 155 ALVAREZ PABLO MPU 29   0:12:45.04 29 01:36.4 0:03:22.7 1,8 56 01:15.6 0:02:54.1 20,7 35 0:03:36.3 16,6 30
35 183 LETHUILLIER TIMOTHEE MPU 30   0:12:50.47 30 01:35.8 0:03:16.2 1,8 40 00:53.0 0:03:05.8 19,4 41 0:03:58.6 15,1 56
36 114 CHELMI QUENTIN MPU 31 club vallée de la sorgue 0:12:51.61 31 01:43.9 0:03:35.6 1,7 75 01:04.2 0:02:51.1 21 32 0:03:34.1 16,8 27
37 116 LOZANO GABIN MPU 32 Defiman Triathlon Pezenas 0:12:52.51 32 01:45.9 0:03:39.5 1,6 84 01:05.2 0:02:46.6 21,6 30 0:03:34.5 16,8 28
38 126 GOUDA NAËL MPU 33 LOUPIAN TRI NATURE 0:12:53.68 33 01:35.5 0:03:16.0 1,8 38 01:17.6 0:03:05.9 19,4 43 0:03:38.7 16,5 36
39 163 BOUREILLE ACHILLE MPU 34   0:12:55.85 34 01:46.7 0:03:14.9 1,8 35 00:50.6 0:03:08.3 19,1 49 0:03:53.4 15,4 51
40 158 BAZALGE TIMOTHÉ MPU 35   0:12:56.70 35 01:50.2 0:03:16.6 1,8 42 00:57.2 0:02:37.7 22,8 21 0:04:12.3 14,3 69
41 149 MASSEBEUF EMILIE FPU 6 SALINDRES TRIATHLON 0:12:57.40 6 01:39.2 0:03:03.7 2 21 00:00.8 0:03:06.1 19,3 44 0:04:08.1 14,5 66
42 139 PLANTIER SACHA MPU 36 MAT MONTPELLIER 0:13:00.71 36 01:25.9 0:03:29.2 1,7 67 00:51.9 0:03:18.7 18,1 57 0:03:53.7 15,4 52
43 137 COUDERC CLARISSE FPU 7 MAT MONTPELLIER 0:13:03.75 7 01:30.5 0:03:22.9 1,8 57 01:20.9 0:02:56.9 20,3 36 0:03:51.2 15,6 48
44 147 LAPEYRONIE SARA FPU 8 MONTPELLIER TRIATHLON 0:13:06.85 8 01:43.7 0:03:26.3 1,7 63 00:53.6 0:03:07.0 19,2 45 0:03:54.2 15,4 53
45 141 SAFI SARAH FPU 9 MAT MONTPELLIER 0:13:10.97 9 01:32.3 0:02:54.7 2,1 10 01:01.2 0:02:43.0 22,1 26 0:04:58.9 12 90
46 160 BONNANS MATÉO MPU 37   0:13:11.30 37 01:58.2 0:03:24.4 1,8 60 01:01.6 0:03:22.4 17,8 63 0:03:22.8 17,7 17
47 131 GONZALEZ REMI MPU 38 maguelonne jogging 0:13:12.70 38 02:03.3 0:03:09.3 1,9 27 00:49.6 0:03:37.2 16,6 77 0:03:31.4 17 24
48 108 PONS GABRIEL MPU 39 ATHLETIQUE CLUB CLERMONTAIS 0:13:13.30 39 02:06.8 0:03:26.7 1,7 64 00:57.8 0:03:15.1 18,5 53 0:03:25.3 17,5 18
49 194 QUIOT GIANNI MPU 40   0:13:13.36 40 01:47.0 0:03:21.2 1,8 53 00:50.1 0:03:07.1 19,2 47 0:04:07.0 14,6 64
50 193 POISSON SOLEANE FPU 10   0:13:14.45 10 01:26.8 0:03:20.5 1,8 50 00:53.8 0:03:04.0 19,6 40 0:04:27.8 13,4 80
HANS a commenté - 17/07/2017 à 15:57 signaler abus
Après mes vacances Lac du Salagou très décevant - pas dans la liste. HENDRIKS HANS - n ° 661- V7 - 3 heures, 32 minutes, 22seconden.

Déjà membre? Identifiez-vous pour commenter l'épreuve ou créer un compte